QFA652 YPPH-YSSY

Flight info

Callsign QFA652
Flight time 4h 3m
Altitude 33000
Route PH H18 MUBID J21 ISLAV/N0459F350 J21 BORLI H205 CULIN Y59 RIVET
Aircraft B738/M-SDE2E3FGHIRWXY/LB1

Departure

Time 2026-05-04 13:10
Airport Perth International Airport (YPPH)

Arrival

Time 2026-05-04 17:13
Airport Sydney Kingsford Smith International Airport (YSSY)
Time Latitude Longitude Altitude Speed Heading
2026-05-04 12:45 -31.93194 115.96101 56 ft 0 kts 200°
2026-05-04 13:01 -31.93188 115.96104 49 ft 4 kts 199°
2026-05-04 13:01 -31.93171 115.96110 52 ft 4 kts 191°
2026-05-04 13:01 -31.93145 115.96112 49 ft 4 kts 160°
2026-05-04 13:02 -31.93130 115.96100 47 ft 0 kts 121°
2026-05-04 13:05 -31.93130 115.96101 47 ft 1 kts 121°
2026-05-04 13:05 -31.93142 115.96124 50 ft 7 kts 121°
2026-05-04 13:06 -31.93164 115.96190 51 ft 10 kts 120°
2026-05-04 13:06 -31.93206 115.96248 52 ft 9 kts 119°
2026-05-04 13:06 -31.93230 115.96310 49 ft 4 kts 78°
2026-05-04 13:06 -31.93206 115.96331 51 ft 5 kts 22°
2026-05-04 13:07 -31.93157 115.96346 51 ft 10 kts 17°
2026-05-04 13:07 -31.93093 115.96411 47 ft 14 kts 47°
2026-05-04 13:07 -31.93025 115.96496 50 ft 14 kts 47°
2026-05-04 13:07 -31.92958 115.96574 50 ft 13 kts 32°
2026-05-04 13:08 -31.92871 115.96611 52 ft 13 kts 32°
2026-05-04 13:08 -31.92851 115.96706 51 ft 13 kts 104°
2026-05-04 13:08 -31.92875 115.96803 52 ft 9 kts 116°
2026-05-04 13:08 -31.92933 115.96825 51 ft 10 kts 189°
2026-05-04 13:09 -31.93073 115.96785 49 ft 46 kts 194°
2026-05-04 13:09 -31.93588 115.96634 51 ft 105 kts 194°
2026-05-04 13:09 -31.94467 115.96380 61 ft 154 kts 193°
2026-05-04 13:09 -31.95606 115.96008 255 ft 179 kts 194°
2026-05-04 13:10 -31.96787 115.95585 927 ft 173 kts 195°
2026-05-04 13:10 -31.97954 115.95155 1500 ft 181 kts 195°
2026-05-04 13:10 -31.99191 115.94693 1875 ft 196 kts 184°
2026-05-04 13:10 -32.00521 115.95034 2050 ft 204 kts 138°
2026-05-04 13:11 -32.01319 115.96426 2315 ft 212 kts 110°
2026-05-04 13:11 -32.01885 115.98066 2746 ft 220 kts 111°
2026-05-04 13:11 -32.02512 115.99806 3007 ft 240 kts 112°
2026-05-04 13:11 -32.03183 116.01594 3656 ft 243 kts 112°
2026-05-04 13:12 -32.03896 116.03436 4179 ft 252 kts 113°
2026-05-04 13:12 -32.04652 116.05338 4726 ft 260 kts 114°
2026-05-04 13:12 -32.05443 116.07295 5252 ft 268 kts 115°
2026-05-04 13:12 -32.06255 116.09277 5936 ft 268 kts 115°
2026-05-04 13:13 -32.07076 116.11262 6628 ft 270 kts 115°
2026-05-04 13:13 -32.07904 116.13254 7252 ft 272 kts 115°
2026-05-04 13:13 -32.08745 116.15267 7854 ft 275 kts 116°
2026-05-04 13:13 -32.09594 116.17294 8496 ft 276 kts 116°
2026-05-04 13:14 -32.10449 116.19334 9096 ft 279 kts 116°
2026-05-04 13:14 -32.11312 116.21394 9714 ft 281 kts 116°
2026-05-04 13:14 -32.12173 116.23446 10286 ft 285 kts 116°
2026-05-04 13:14 -32.13082 116.25612 10447 ft 304 kts 116°
2026-05-04 13:15 -32.14050 116.27922 10605 ft 322 kts 116°
2026-05-04 13:15 -32.15071 116.30358 10745 ft 340 kts 116°
2026-05-04 13:15 -32.16145 116.32922 10876 ft 357 kts 116°
2026-05-04 13:15 -32.17265 116.35596 11171 ft 367 kts 116°
2026-05-04 13:16 -32.18396 116.38303 11668 ft 370 kts 116°
2026-05-04 13:16 -32.19539 116.41037 12238 ft 371 kts 116°
2026-05-04 13:16 -32.20682 116.43775 12782 ft 374 kts 117°
2026-05-04 13:16 -32.21867 116.46518 13313 ft 376 kts 120°
2026-05-04 13:17 -32.23212 116.49191 13861 ft 379 kts 122°
2026-05-04 13:17 -32.24629 116.51836 14394 ft 381 kts 123°
2026-05-04 13:17 -32.26052 116.54453 14873 ft 385 kts 123°
2026-05-04 13:17 -32.27501 116.57128 15357 ft 388 kts 123°
2026-05-04 13:18 -32.28954 116.59834 15859 ft 391 kts 123°
2026-05-04 13:18 -32.30411 116.62570 16335 ft 395 kts 123°
2026-05-04 13:18 -32.31876 116.65337 16804 ft 399 kts 123°
2026-05-04 13:18 -32.33350 116.68131 17296 ft 402 kts 123°
2026-05-04 13:19 -32.34832 116.70947 17761 ft 405 kts 123°
2026-05-04 13:19 -32.36328 116.73793 18221 ft 408 kts 123°
2026-05-04 13:19 -32.37832 116.76657 18672 ft 411 kts 123°
2026-05-04 13:19 -32.39321 116.79496 19063 ft 414 kts 123°
2026-05-04 13:20 -32.40845 116.82403 19471 ft 417 kts 123°
2026-05-04 13:20 -32.42378 116.85330 19873 ft 420 kts 124°
2026-05-04 13:20 -32.43920 116.88275 20290 ft 422 kts 124°
2026-05-04 13:20 -32.45468 116.91234 20714 ft 424 kts 124°
2026-05-04 13:21 -32.47034 116.94231 21077 ft 428 kts 124°
2026-05-04 13:21 -32.48603 116.97235 21428 ft 432 kts 124°
2026-05-04 13:21 -32.50191 117.00278 21824 ft 434 kts 124°
2026-05-04 13:21 -32.51784 117.03333 22226 ft 437 kts 124°
2026-05-04 13:22 -32.53375 117.06420 22588 ft 440 kts 122°
2026-05-04 13:22 -32.54682 117.09735 22916 ft 447 kts 112°
2026-05-04 13:22 -32.55666 117.13199 23286 ft 450 kts 111°
2026-05-04 13:22 -32.56629 117.16759 23634 ft 453 kts 111°
2026-05-04 13:23 -32.57586 117.20330 24004 ft 455 kts 111°
2026-05-04 13:23 -32.58553 117.23916 24319 ft 457 kts 111°
2026-05-04 13:23 -32.59532 117.27511 24594 ft 459 kts 111°
2026-05-04 13:23 -32.60528 117.31133 24867 ft 462 kts 111°
2026-05-04 13:24 -32.61531 117.34762 25083 ft 467 kts 111°
2026-05-04 13:24 -32.62540 117.38400 25313 ft 470 kts 111°
2026-05-04 13:24 -32.63563 117.42088 25623 ft 471 kts 111°
2026-05-04 13:25 -32.65619 117.49520 26189 ft 475 kts 110°
2026-05-04 13:25 -32.66654 117.53267 26469 ft 477 kts 110°
2026-05-04 13:25 -32.67676 117.56974 26707 ft 479 kts 110°
2026-05-04 13:25 -32.68713 117.60742 26950 ft 481 kts 110°
2026-05-04 13:26 -32.69756 117.64536 27194 ft 483 kts 110°
2026-05-04 13:26 -32.70807 117.68363 27443 ft 485 kts 110°
2026-05-04 13:26 -32.71838 117.72124 27671 ft 487 kts 110°
2026-05-04 13:26 -32.72888 117.75961 27898 ft 489 kts 110°
2026-05-04 13:27 -32.73944 117.79822 28144 ft 491 kts 110°
2026-05-04 13:27 -32.74997 117.83678 28472 ft 491 kts 110°
2026-05-04 13:27 -32.76047 117.87531 28842 ft 489 kts 110°
2026-05-04 13:27 -32.77095 117.91382 29189 ft 489 kts 110°
2026-05-04 13:28 -32.78140 117.95226 29485 ft 489 kts 109°
2026-05-04 13:28 -32.79186 117.99074 29783 ft 489 kts 109°
2026-05-04 13:28 -32.80232 118.02931 30120 ft 489 kts 109°
2026-05-04 13:28 -32.81273 118.06777 30461 ft 488 kts 109°
2026-05-04 13:29 -32.82313 118.10624 30744 ft 488 kts 109°
2026-05-04 13:29 -32.83340 118.14426 31037 ft 487 kts 109°
2026-05-04 13:29 -32.84374 118.18259 31288 ft 487 kts 109°
2026-05-04 13:29 -32.85409 118.22100 31553 ft 487 kts 109°
2026-05-04 13:30 -32.86440 118.25932 31825 ft 486 kts 109°
2026-05-04 13:30 -32.87471 118.29770 32045 ft 487 kts 109°
2026-05-04 13:30 -32.88498 118.33597 32290 ft 486 kts 109°
2026-05-04 13:30 -32.89526 118.37437 32570 ft 485 kts 109°
2026-05-04 13:31 -32.90551 118.41270 32832 ft 485 kts 109°
2026-05-04 13:31 -32.91573 118.45094 33067 ft 485 kts 109°
2026-05-04 13:31 -32.92593 118.48918 33297 ft 485 kts 109°
2026-05-04 13:31 -32.93614 118.52750 33540 ft 484 kts 109°
2026-05-04 13:32 -32.94630 118.56568 33784 ft 484 kts 109°
2026-05-04 13:32 -32.95608 118.60344 34021 ft 484 kts 105°
2026-05-04 13:32 -32.96167 118.64308 34200 ft 486 kts 94°
2026-05-04 13:32 -32.96144 118.68328 34408 ft 486 kts 84°
2026-05-04 13:33 -32.95581 118.72291 34539 ft 486 kts 74°
2026-05-04 13:33 -32.94676 118.76170 34697 ft 486 kts 73°
2026-05-04 13:33 -32.93727 118.80045 34861 ft 486 kts 73°
2026-05-04 13:33 -32.92771 118.83916 35043 ft 486 kts 73°
2026-05-04 13:34 -32.91827 118.87779 35220 ft 486 kts 73°
2026-05-04 13:34 -32.90895 118.91646 35364 ft 487 kts 73°
2026-05-04 13:34 -32.89044 118.99444 35397 ft 490 kts 73°
2026-05-04 13:35 -32.86309 119.11060 35401 ft 486 kts 73°
2026-05-04 13:36 -32.84483 119.18780 35402 ft 484 kts 73°
2026-05-04 13:36 -32.82658 119.26468 35395 ft 482 kts 73°
2026-05-04 13:37 -32.80828 119.34148 35402 ft 482 kts 73°
2026-05-04 13:37 -32.78991 119.41835 35407 ft 483 kts 73°
2026-05-04 13:38 -32.77150 119.49519 35407 ft 484 kts 73°
2026-05-04 13:38 -32.75307 119.57186 35398 ft 486 kts 73°
2026-05-04 13:39 -32.73440 119.64929 35414 ft 488 kts 73°
2026-05-04 13:39 -32.71563 119.72692 35410 ft 490 kts 73°
2026-05-04 13:40 -32.69671 119.80495 35405 ft 491 kts 73°
2026-05-04 13:40 -32.67771 119.88307 35411 ft 492 kts 73°
2026-05-04 13:41 -32.65876 119.96077 35406 ft 493 kts 73°
2026-05-04 13:41 -32.63954 120.03931 35403 ft 493 kts 72°
2026-05-04 13:42 -32.61089 120.15599 35404 ft 492 kts 72°
2026-05-04 13:42 -32.59171 120.23382 35407 ft 490 kts 72°
2026-05-04 13:43 -32.57254 120.31137 35416 ft 490 kts 72°
2026-05-04 13:43 -32.55347 120.38829 35404 ft 489 kts 72°
2026-05-04 13:44 -32.53422 120.46570 35405 ft 489 kts 72°
2026-05-04 13:44 -32.51494 120.54300 35411 ft 489 kts 72°
2026-05-04 13:45 -32.49562 120.62029 35410 ft 489 kts 72°
2026-05-04 13:45 -32.47636 120.69709 35408 ft 489 kts 72°
2026-05-04 13:46 -32.45689 120.77450 35406 ft 490 kts 72°
2026-05-04 13:46 -32.44067 120.83883 35409 ft 491 kts 72°
2026-05-04 13:47 -32.42110 120.91624 35410 ft 491 kts 72°
2026-05-04 13:47 -32.40143 120.99381 35401 ft 492 kts 72°
2026-05-04 13:48 -32.38169 121.07143 35409 ft 492 kts 72°
2026-05-04 13:48 -32.36210 121.14827 35405 ft 493 kts 72°
2026-05-04 13:49 -32.34250 121.22492 35411 ft 493 kts 72°
2026-05-04 13:49 -32.32255 121.30272 35405 ft 494 kts 72°
2026-05-04 13:50 -32.30286 121.37930 35414 ft 494 kts 72°
2026-05-04 13:50 -32.28283 121.45699 35407 ft 494 kts 72°
2026-05-04 13:51 -32.26278 121.53454 35402 ft 495 kts 72°
2026-05-04 13:51 -32.24261 121.61235 35405 ft 495 kts 72°
2026-05-04 13:52 -32.21228 121.72897 35403 ft 495 kts 72°
2026-05-04 13:53 -32.19564 121.80761 35393 ft 495 kts 84°
2026-05-04 13:53 -32.19550 121.88757 35414 ft 493 kts 94°
2026-05-04 13:54 -32.20050 122.00845 35404 ft 494 kts 94°
2026-05-04 13:55 -32.20461 122.13007 35401 ft 494 kts 93°
2026-05-04 13:55 -32.20823 122.25178 35400 ft 495 kts 93°
2026-05-04 13:56 -32.21059 122.33296 35402 ft 495 kts 93°
2026-05-04 13:57 -32.21407 122.45484 35423 ft 495 kts 93°
2026-05-04 13:58 -32.21852 122.61710 35402 ft 495 kts 93°
2026-05-04 13:58 -32.22173 122.73904 35402 ft 495 kts 93°
2026-05-04 13:59 -32.22381 122.82042 35406 ft 495 kts 93°
2026-05-04 14:00 -32.22681 122.94204 35401 ft 495 kts 93°
2026-05-04 14:00 -32.22971 123.06399 35401 ft 495 kts 93°
2026-05-04 14:01 -32.23158 123.14528 35404 ft 495 kts 93°
2026-05-04 14:02 -32.23425 123.26617 35404 ft 495 kts 93°
2026-05-04 14:02 -32.23599 123.34755 35398 ft 496 kts 93°
2026-05-04 14:03 -32.23767 123.42847 35400 ft 496 kts 93°
2026-05-04 14:03 -32.23930 123.50987 35394 ft 496 kts 93°
2026-05-04 14:04 -32.24166 123.63219 35395 ft 496 kts 93°
2026-05-04 14:04 -32.24316 123.71370 35400 ft 496 kts 93°
2026-05-04 14:05 -32.24532 123.83586 35393 ft 496 kts 93°
2026-05-04 14:06 -32.24669 123.91684 35400 ft 496 kts 93°
2026-05-04 14:06 -32.24801 123.99837 35397 ft 496 kts 93°
2026-05-04 14:07 -32.24928 124.07988 35389 ft 496 kts 93°
2026-05-04 14:07 -32.25050 124.16140 35388 ft 496 kts 93°
2026-05-04 14:08 -32.25166 124.24273 35392 ft 495 kts 93°
2026-05-04 14:08 -32.25277 124.32408 35384 ft 495 kts 93°
2026-05-04 14:09 -32.25434 124.44609 35382 ft 494 kts 93°
2026-05-04 14:10 -32.25578 124.56745 35379 ft 494 kts 93°
2026-05-04 14:10 -32.25669 124.64866 35392 ft 494 kts 93°
2026-05-04 14:11 -32.25754 124.72984 35381 ft 494 kts 93°
2026-05-04 14:11 -32.25871 124.85123 35367 ft 493 kts 93°
2026-05-04 14:12 -32.25943 124.93219 35367 ft 493 kts 93°
2026-05-04 14:13 -32.26041 125.05357 35373 ft 492 kts 93°
2026-05-04 14:13 -32.26100 125.13452 35367 ft 492 kts 93°
2026-05-04 14:14 -32.26153 125.21535 35374 ft 492 kts 93°
2026-05-04 14:14 -32.26224 125.33594 35370 ft 492 kts 93°
2026-05-04 14:15 -32.26321 125.49762 35365 ft 491 kts 95°
2026-05-04 14:16 -32.27565 125.61665 35357 ft 488 kts 102°
2026-05-04 14:17 -32.29047 125.73569 35362 ft 488 kts 101°
2026-05-04 14:18 -32.30361 125.85010 35370 ft 488 kts 101°
2026-05-04 14:19 -32.31765 125.97596 35352 ft 489 kts 101°
2026-05-04 14:19 -32.32338 126.02765 35351 ft 489 kts 101°
2026-05-04 14:20 -32.33048 126.09117 35355 ft 489 kts 101°
2026-05-04 14:20 -32.33777 126.15736 35354 ft 489 kts 101°
2026-05-04 14:21 -32.34824 126.22702 35008 ft 485 kts 120°
2026-05-04 14:21 -32.36023 126.24832 33282 ft 492 kts 141°
2026-05-04 14:21 -32.37625 126.26489 31686 ft 525 kts 144°
2026-05-04 14:22 -32.39840 126.29257 31480 ft 516 kts 126°
2026-05-04 14:22 -32.41246 126.32923 32652 ft 485 kts 107°
2026-05-04 14:22 -32.41601 126.36329 33478 ft 476 kts 90°
2026-05-04 14:22 -32.41383 126.39867 33990 ft 470 kts 92°
2026-05-04 14:23 -32.41805 126.47147 34156 ft 472 kts 101°
2026-05-04 14:23 -32.42110 126.49814 34194 ft 475 kts 102°
2026-05-04 14:24 -32.42940 126.57341 34543 ft 477 kts 100°
2026-05-04 14:24 -32.43292 126.61129 34724 ft 477 kts 99°
2026-05-04 14:24 -32.43617 126.65052 34860 ft 479 kts 99°
2026-05-04 14:24 -32.43915 126.68982 35048 ft 479 kts 98°
2026-05-04 14:25 -32.44172 126.72555 35252 ft 478 kts 98°
2026-05-04 14:25 -32.44915 126.83123 35358 ft 485 kts 98°
2026-05-04 14:26 -32.45013 126.84516 35358 ft 486 kts 98°
2026-05-04 14:28 -32.45517 126.91660 35357 ft 492 kts 98°
2026-05-04 14:28 -32.45767 126.95205 35354 ft 494 kts 98°
2026-05-04 14:29 -32.46129 127.00363 35354 ft 497 kts 98°
2026-05-04 14:30 -32.46691 127.08474 35333 ft 490 kts 98°
2026-05-04 14:31 -32.47491 127.20128 35346 ft 485 kts 98°
2026-05-04 14:32 -32.48572 127.36050 35338 ft 484 kts 98°
2026-05-04 14:32 -32.49103 127.44005 35337 ft 484 kts 97°
2026-05-04 14:33 -32.49541 127.50611 35342 ft 484 kts 97°
2026-05-04 14:33 -32.50063 127.58569 35336 ft 484 kts 97°
2026-05-04 14:34 -32.50581 127.66536 35338 ft 485 kts 97°
2026-05-04 14:34 -32.51093 127.74504 35349 ft 485 kts 97°
2026-05-04 14:35 -32.51599 127.82428 35349 ft 486 kts 97°
2026-05-04 14:35 -32.52102 127.90410 35331 ft 486 kts 97°
2026-05-04 14:36 -32.52601 127.98390 35333 ft 485 kts 97°
2026-05-04 14:36 -32.53201 128.06349 35327 ft 483 kts 99°
2026-05-04 14:37 -32.53974 128.14252 35327 ft 482 kts 99°
2026-05-04 14:37 -32.54750 128.22149 35329 ft 481 kts 99°
2026-05-04 14:38 -32.55493 128.30035 35343 ft 480 kts 99°
2026-05-04 14:38 -32.56215 128.37914 35326 ft 480 kts 99°
2026-05-04 14:39 -32.56927 128.45775 35323 ft 479 kts 98°
2026-05-04 14:39 -32.57628 128.53572 35323 ft 478 kts 98°
2026-05-04 14:40 -32.58679 128.65334 35328 ft 478 kts 98°
2026-05-04 14:40 -32.59373 128.73172 35325 ft 478 kts 98°
2026-05-04 14:41 -32.60065 128.81032 35326 ft 478 kts 98°
2026-05-04 14:42 -32.61430 128.96732 35321 ft 478 kts 98°
2026-05-04 14:42 -32.62101 129.04535 35322 ft 478 kts 98°
2026-05-04 14:43 -32.62772 129.12389 35327 ft 478 kts 98°
2026-05-04 14:43 -32.63437 129.20233 35321 ft 478 kts 97°
2026-05-04 14:44 -32.64097 129.28078 35315 ft 478 kts 97°
2026-05-04 14:44 -32.64752 129.35930 35316 ft 477 kts 97°
2026-05-04 14:45 -32.65398 129.43729 35318 ft 477 kts 97°
2026-05-04 14:45 -32.66043 129.51574 35309 ft 476 kts 97°
2026-05-04 14:46 -32.66682 129.59402 35307 ft 476 kts 97°
2026-05-04 14:46 -32.67314 129.67207 35308 ft 475 kts 97°
2026-05-04 14:47 -32.67940 129.75003 35312 ft 474 kts 96°
2026-05-04 14:47 -32.68560 129.82783 35311 ft 473 kts 96°
2026-05-04 14:48 -32.69175 129.90561 35304 ft 473 kts 96°
2026-05-04 14:48 -32.69785 129.98340 35307 ft 472 kts 96°
2026-05-04 14:49 -32.70385 130.06051 35307 ft 472 kts 96°
2026-05-04 14:49 -32.70984 130.13812 35307 ft 472 kts 96°
2026-05-04 14:50 -32.71579 130.21584 35299 ft 472 kts 96°
2026-05-04 14:50 -32.72168 130.29342 35299 ft 471 kts 96°
2026-05-04 14:51 -32.72753 130.37105 35296 ft 471 kts 96°
2026-05-04 14:51 -32.73330 130.44826 35296 ft 471 kts 96°
2026-05-04 14:52 -32.73904 130.52587 35294 ft 472 kts 96°
2026-05-04 14:52 -32.74475 130.60356 35300 ft 472 kts 96°
2026-05-04 14:53 -32.75041 130.68129 35299 ft 472 kts 96°
2026-05-04 14:53 -32.75602 130.75907 35296 ft 472 kts 96°
2026-05-04 14:54 -32.76155 130.83638 35294 ft 472 kts 96°
2026-05-04 14:54 -32.76707 130.91414 35293 ft 472 kts 96°
2026-05-04 14:55 -32.77251 130.99153 35295 ft 472 kts 96°
2026-05-04 14:55 -32.77793 131.06927 35296 ft 472 kts 96°
2026-05-04 14:56 -32.78330 131.14714 35295 ft 472 kts 96°
2026-05-04 14:56 -32.78862 131.22492 35277 ft 472 kts 96°
2026-05-04 14:57 -32.79390 131.30271 35293 ft 472 kts 96°
2026-05-04 14:57 -32.79912 131.38044 35285 ft 472 kts 96°
2026-05-04 14:58 -32.80429 131.45813 35279 ft 471 kts 96°
2026-05-04 14:58 -32.80941 131.53580 35286 ft 471 kts 96°
2026-05-04 14:59 -32.81449 131.61361 35274 ft 471 kts 96°
2026-05-04 15:00 -32.82197 131.72949 35283 ft 471 kts 96°
2026-05-04 15:00 -32.82692 131.80707 35282 ft 471 kts 96°
2026-05-04 15:01 -32.83425 131.92361 35278 ft 471 kts 96°
2026-05-04 15:01 -32.83908 132.00128 35277 ft 471 kts 96°
2026-05-04 15:02 -32.84387 132.07904 35280 ft 471 kts 96°
2026-05-04 15:02 -32.84859 132.15638 35278 ft 471 kts 96°
2026-05-04 15:03 -32.85328 132.23419 35280 ft 471 kts 96°
2026-05-04 15:03 -32.85793 132.31197 35283 ft 472 kts 96°
2026-05-04 15:04 -32.86254 132.38979 35270 ft 472 kts 96°
2026-05-04 15:04 -32.86713 132.46774 35270 ft 472 kts 96°
2026-05-04 15:05 -32.87168 132.54570 35267 ft 472 kts 96°
2026-05-04 15:05 -32.87615 132.62305 35263 ft 472 kts 96°
2026-05-04 15:06 -32.88060 132.70094 35266 ft 472 kts 96°
2026-05-04 15:07 -32.88718 132.81788 35267 ft 472 kts 96°
2026-05-04 15:07 -32.89151 132.89589 35264 ft 472 kts 96°
2026-05-04 15:08 -32.89580 132.97393 35266 ft 471 kts 96°
2026-05-04 15:08 -32.90000 133.05128 35265 ft 471 kts 96°
2026-05-04 15:09 -32.90418 133.12915 35264 ft 471 kts 96°
2026-05-04 15:09 -32.90831 133.20698 35261 ft 471 kts 96°
2026-05-04 15:10 -32.91440 133.32355 35258 ft 470 kts 96°
2026-05-04 15:11 -32.92036 133.43968 35260 ft 470 kts 96°
2026-05-04 15:11 -32.92428 133.51736 35255 ft 470 kts 96°
2026-05-04 15:12 -32.92817 133.59518 35262 ft 470 kts 95°
2026-05-04 15:12 -32.93200 133.67285 35258 ft 470 kts 95°
2026-05-04 15:13 -32.93578 133.75048 35256 ft 470 kts 95°
2026-05-04 15:13 -32.93951 133.82811 35255 ft 470 kts 95°
2026-05-04 15:14 -32.94317 133.90539 35258 ft 470 kts 95°
2026-05-04 15:14 -32.94681 133.98309 35262 ft 469 kts 95°
2026-05-04 15:15 -32.95040 134.06079 35257 ft 469 kts 95°
2026-05-04 15:15 -32.95393 134.13822 35259 ft 469 kts 95°
2026-05-04 15:16 -32.95912 134.25409 35258 ft 469 kts 95°
2026-05-04 15:17 -32.96422 134.37021 35268 ft 469 kts 95°
2026-05-04 15:17 -32.96920 134.48630 35254 ft 470 kts 95°
2026-05-04 15:18 -32.97246 134.56373 35268 ft 470 kts 95°
2026-05-04 15:19 -32.97675 134.66724 35256 ft 470 kts 94°
2026-05-04 15:19 -32.98147 134.78344 35260 ft 470 kts 94°
2026-05-04 15:20 -32.98457 134.86136 35267 ft 471 kts 94°
2026-05-04 15:20 -32.98762 134.93931 35259 ft 471 kts 94°
2026-05-04 15:21 -32.99063 135.01726 35263 ft 471 kts 94°
2026-05-04 15:22 -32.99503 135.13355 35255 ft 471 kts 94°
2026-05-04 15:22 -32.99919 135.25049 35255 ft 471 kts 94°
2026-05-04 15:23 -33.00187 135.32849 35252 ft 471 kts 94°
2026-05-04 15:23 -33.00451 135.40642 35257 ft 471 kts 93°
2026-05-04 15:24 -33.00966 135.56211 35259 ft 471 kts 93°
2026-05-04 15:25 -33.01218 135.64031 35254 ft 471 kts 93°
2026-05-04 15:26 -33.01584 135.75688 35262 ft 471 kts 93°
2026-05-04 15:26 -33.01941 135.87427 35263 ft 472 kts 93°
2026-05-04 15:27 -33.02286 135.99119 35272 ft 472 kts 93°
2026-05-04 15:28 -33.02621 136.10825 35255 ft 472 kts 93°
2026-05-04 15:29 -33.02945 136.22570 35252 ft 472 kts 92°
2026-05-04 15:30 -33.03658 136.49895 35248 ft 473 kts 92°
2026-05-04 15:31 -33.03946 136.61670 35249 ft 473 kts 92°
2026-05-04 15:32 -33.04403 136.81285 35237 ft 474 kts 92°
2026-05-04 15:34 -33.04829 137.00928 35239 ft 475 kts 92°
2026-05-04 15:34 -33.05070 137.12746 35238 ft 476 kts 92°
2026-05-04 15:35 -33.05301 137.24565 35229 ft 476 kts 91°
2026-05-04 15:36 -33.05521 137.36413 35237 ft 476 kts 91°
2026-05-04 15:36 -33.05662 137.44317 35230 ft 476 kts 91°
2026-05-04 15:37 -33.05836 137.52158 35228 ft 476 kts 95°
2026-05-04 15:37 -33.07038 137.59912 35227 ft 475 kts 103°
2026-05-04 15:38 -33.08522 137.67607 35229 ft 475 kts 103°
2026-05-04 15:38 -33.09974 137.75300 35225 ft 476 kts 103°
2026-05-04 15:39 -33.11376 137.82956 35224 ft 476 kts 103°
2026-05-04 15:40 -33.13403 137.94201 35225 ft 476 kts 102°
2026-05-04 15:40 -33.14789 138.01929 35222 ft 476 kts 102°
2026-05-04 15:41 -33.16171 138.09655 35225 ft 476 kts 102°
2026-05-04 15:41 -33.17543 138.17352 35227 ft 476 kts 102°
2026-05-04 15:42 -33.18920 138.25101 35225 ft 477 kts 102°
2026-05-04 15:42 -33.20291 138.32850 35228 ft 477 kts 102°
2026-05-04 15:43 -33.21661 138.40620 35229 ft 477 kts 102°
2026-05-04 15:43 -33.23025 138.48385 35228 ft 478 kts 102°
2026-05-04 15:44 -33.24387 138.56175 35234 ft 479 kts 102°
2026-05-04 15:44 -33.25737 138.63922 35235 ft 479 kts 102°
2026-05-04 15:45 -33.27093 138.71733 35223 ft 481 kts 102°
2026-05-04 15:45 -33.28448 138.79569 35225 ft 481 kts 102°
2026-05-04 15:46 -33.29800 138.87423 35234 ft 482 kts 102°
2026-05-04 15:46 -33.31148 138.95283 35224 ft 483 kts 102°
2026-05-04 15:47 -33.32495 139.03163 35223 ft 484 kts 102°
2026-05-04 15:47 -33.33837 139.11052 35226 ft 484 kts 102°
2026-05-04 15:48 -33.35176 139.18954 35219 ft 485 kts 102°
2026-05-04 15:48 -33.37170 139.30777 35215 ft 485 kts 102°
2026-05-04 15:49 -33.38498 139.38692 35209 ft 485 kts 102°
2026-05-04 15:49 -33.39795 139.46621 35209 ft 485 kts 101°
2026-05-04 15:50 -33.41033 139.54558 35212 ft 485 kts 101°
2026-05-04 15:50 -33.42254 139.62444 35203 ft 484 kts 101°
2026-05-04 15:51 -33.43483 139.70368 35203 ft 484 kts 101°
2026-05-04 15:51 -33.44712 139.78300 35205 ft 484 kts 101°
2026-05-04 15:52 -33.45938 139.86242 35202 ft 485 kts 101°
2026-05-04 15:52 -33.47153 139.94149 35203 ft 485 kts 101°
2026-05-04 15:53 -33.48373 140.02124 35204 ft 486 kts 101°
2026-05-04 15:53 -33.49589 140.10110 35199 ft 487 kts 101°
2026-05-04 15:54 -33.50799 140.18097 35194 ft 487 kts 101°
2026-05-04 15:54 -33.52003 140.26071 35198 ft 488 kts 101°
2026-05-04 15:55 -33.53207 140.34088 35196 ft 489 kts 100°
2026-05-04 15:55 -33.54408 140.42120 35206 ft 490 kts 100°
2026-05-04 15:56 -33.55605 140.50167 35193 ft 491 kts 100°
2026-05-04 15:56 -33.56802 140.58246 35188 ft 491 kts 100°
2026-05-04 15:57 -33.57993 140.66326 35193 ft 492 kts 100°
2026-05-04 15:57 -33.59173 140.74363 35187 ft 492 kts 100°
2026-05-04 15:58 -33.60356 140.82461 35183 ft 492 kts 100°
2026-05-04 15:58 -33.61533 140.90556 35180 ft 493 kts 100°
2026-05-04 15:59 -33.62707 140.98670 35183 ft 493 kts 100°
2026-05-04 15:59 -33.63875 141.06782 35182 ft 493 kts 100°
2026-05-04 16:00 -33.65032 141.14865 35185 ft 494 kts 100°
2026-05-04 16:00 -33.66190 141.22995 35186 ft 494 kts 100°
2026-05-04 16:01 -33.67346 141.31144 35188 ft 495 kts 100°
2026-05-04 16:01 -33.68498 141.39311 35173 ft 495 kts 99°
2026-05-04 16:02 -33.69637 141.47423 35183 ft 496 kts 99°
2026-05-04 16:03 -33.71349 141.59689 35182 ft 496 kts 99°
2026-05-04 16:03 -33.72487 141.67897 35176 ft 497 kts 99°
2026-05-04 16:04 -33.73618 141.76090 35183 ft 497 kts 99°
2026-05-04 16:04 -33.75300 141.88359 35175 ft 498 kts 99°
2026-05-04 16:05 -33.76419 141.96574 35177 ft 498 kts 99°
2026-05-04 16:06 -33.77904 142.07539 35178 ft 499 kts 99°
2026-05-04 16:07 -33.80118 142.24033 35172 ft 499 kts 99°
2026-05-04 16:08 -33.82306 142.40500 35172 ft 500 kts 99°
2026-05-04 16:09 -33.85027 142.61227 35168 ft 503 kts 99°
2026-05-04 16:10 -33.87134 142.77530 35178 ft 504 kts 99°
2026-05-04 16:11 -33.89273 142.94244 35167 ft 506 kts 98°
2026-05-04 16:12 -33.92436 143.19311 35163 ft 508 kts 98°
2026-05-04 16:13 -33.94531 143.36154 35161 ft 509 kts 98°
2026-05-04 16:14 -33.96585 143.52848 35161 ft 510 kts 98°
2026-05-04 16:16 -33.99147 143.73951 35156 ft 512 kts 98°
2026-05-04 16:17 -34.01679 143.95116 35161 ft 514 kts 98°
2026-05-04 16:18 -34.03696 144.12212 35155 ft 516 kts 97°
2026-05-04 16:19 -34.06154 144.33321 35148 ft 516 kts 97°
2026-05-04 16:20 -34.08596 144.54632 35145 ft 517 kts 97°
2026-05-04 16:22 -34.11019 144.76108 35160 ft 518 kts 97°
2026-05-04 16:23 -34.13892 145.02027 35140 ft 520 kts 97°
2026-05-04 16:25 -34.16714 145.27999 35144 ft 521 kts 96°
2026-05-04 16:26 -34.19944 145.58391 35136 ft 522 kts 96°
2026-05-04 16:28 -34.22211 145.80160 35145 ft 522 kts 95°
2026-05-04 16:29 -34.25459 146.10630 35130 ft 524 kts 99°
2026-05-04 16:31 -34.29042 146.32278 35133 ft 525 kts 100°
2026-05-04 16:32 -34.33170 146.58219 35133 ft 524 kts 99°
2026-05-04 16:33 -34.35884 146.75533 35131 ft 523 kts 99°
2026-05-04 16:34 -34.37906 146.88527 35121 ft 523 kts 99°
2026-05-04 16:35 -34.41892 147.14442 35125 ft 523 kts 99°
2026-05-04 16:36 -34.43870 147.27439 35128 ft 523 kts 99°
2026-05-04 16:37 -34.45836 147.40456 35126 ft 524 kts 98°
2026-05-04 16:38 -34.48419 147.57716 35130 ft 524 kts 98°
2026-05-04 16:39 -34.51639 147.79467 35128 ft 525 kts 98°
2026-05-04 16:40 -34.54194 147.96931 35135 ft 526 kts 98°
2026-05-04 16:41 -34.57355 148.18787 35120 ft 527 kts 98°
2026-05-04 16:43 -34.60489 148.40749 35123 ft 528 kts 97°
2026-05-04 16:43 -34.62343 148.53879 35114 ft 528 kts 97°
2026-05-04 16:45 -34.66023 148.80260 35109 ft 527 kts 97°
2026-05-04 16:46 -34.69030 149.02150 34742 ft 530 kts 97°
2026-05-04 16:47 -34.70217 149.10874 33474 ft 531 kts 97°
2026-05-04 16:47 -34.71419 149.19752 32079 ft 531 kts 96°
2026-05-04 16:48 -34.73142 149.33005 29953 ft 529 kts 91°
2026-05-04 16:48 -34.73090 149.37442 29268 ft 519 kts 78°
2026-05-04 16:49 -34.71269 149.45612 28438 ft 486 kts 58°
2026-05-04 16:49 -34.68116 149.52690 27399 ft 472 kts 54°
2026-05-04 16:50 -34.65005 149.59630 26393 ft 464 kts 54°
2026-05-04 16:50 -34.61989 149.66483 25381 ft 456 kts 54°
2026-05-04 16:51 -34.59035 149.73229 24386 ft 449 kts 54°
2026-05-04 16:51 -34.57592 149.76516 23886 ft 447 kts 54°
2026-05-04 16:51 -34.54674 149.83153 22786 ft 442 kts 54°
2026-05-04 16:52 -34.51808 149.89659 21750 ft 433 kts 54°
2026-05-04 16:52 -34.50395 149.92862 21315 ft 428 kts 54°
2026-05-04 16:53 -34.48081 149.98106 20626 ft 419 kts 54°
2026-05-04 16:53 -34.43991 150.07332 19226 ft 410 kts 54°
2026-05-04 16:54 -34.42645 150.10367 18746 ft 407 kts 54°
2026-05-04 16:55 -34.37339 150.22292 16767 ft 395 kts 55°
2026-05-04 16:55 -34.34765 150.28082 15847 ft 389 kts 55°
2026-05-04 16:56 -34.32204 150.33816 14939 ft 385 kts 55°
2026-05-04 16:56 -34.28406 150.42315 13535 ft 381 kts 56°
2026-05-04 16:57 -34.27147 150.45126 13066 ft 379 kts 56°
2026-05-04 16:57 -34.24673 150.50654 12102 ft 375 kts 56°
2026-05-04 16:58 -34.21048 150.58750 10926 ft 352 kts 55°
2026-05-04 16:58 -34.19917 150.61280 10768 ft 334 kts 54°
2026-05-04 16:59 -34.17807 150.65981 10483 ft 303 kts 54°
2026-05-04 17:00 -34.13784 150.74892 10015 ft 300 kts 54°
2026-05-04 17:00 -34.10756 150.81603 9105 ft 301 kts 53°
2026-05-04 17:01 -34.08789 150.85972 8614 ft 294 kts 53°
2026-05-04 17:01 -34.06853 150.90277 8141 ft 289 kts 54°
2026-05-04 17:02 -34.05014 150.94363 7674 ft 270 kts 53°
2026-05-04 17:02 -34.03319 150.98156 7301 ft 247 kts 56°
2026-05-04 17:03 -34.02968 151.00173 7079 ft 254 kts 91°
2026-05-04 17:03 -34.03603 151.02154 6875 ft 257 kts 128°
2026-05-04 17:03 -34.06585 151.04252 6530 ft 249 kts 165°
2026-05-04 17:04 -34.09889 151.05619 5897 ft 252 kts 165°
2026-05-04 17:04 -34.13207 151.06898 5156 ft 248 kts 165°
2026-05-04 17:05 -34.16394 151.08069 4385 ft 234 kts 166°
2026-05-04 17:05 -34.19425 151.09223 3632 ft 224 kts 164°
2026-05-04 17:06 -34.21272 151.12017 3002 ft 221 kts 92°
2026-05-04 17:06 -34.21126 151.13799 2992 ft 209 kts 80°
2026-05-04 17:07 -34.20269 151.17034 2999 ft 198 kts 49°
2026-05-04 17:07 -34.19703 151.17894 2998 ft 200 kts 47°
2026-05-04 17:07 -34.18520 151.19626 2992 ft 202 kts 47°
2026-05-04 17:07 -34.17619 151.20925 2980 ft 201 kts 47°
2026-05-04 17:08 -34.16708 151.22223 2983 ft 197 kts 42°
2026-05-04 17:08 -34.14462 151.22720 2770 ft 165 kts 340°
2026-05-04 17:08 -34.13352 151.22450 2654 ft 163 kts 341°
2026-05-04 17:09 -34.12227 151.22172 2537 ft 171 kts 343°
2026-05-04 17:09 -34.11040 151.21871 2505 ft 174 kts 344°
2026-05-04 17:09 -34.09865 151.21569 2487 ft 170 kts 343°
2026-05-04 17:10 -34.07612 151.20983 2298 ft 166 kts 343°
2026-05-04 17:10 -34.04224 151.20101 1628 ft 165 kts 342°
2026-05-04 17:11 -34.03100 151.19806 1376 ft 166 kts 344°
2026-05-04 17:11 -34.01976 151.19509 1191 ft 167 kts 343°
2026-05-04 17:11 -33.99719 151.18925 752 ft 164 kts 344°
2026-05-04 17:12 -33.98610 151.18634 537 ft 162 kts 344°
2026-05-04 17:12 -33.96516 151.18088 90 ft 149 kts 342°
2026-05-04 17:13 -33.94640 151.17599 29 ft 26 kts 347°
2026-05-04 17:14 -33.94335 151.17736 29 ft 14 kts 352°
2026-05-04 17:14 -33.94241 151.17707 28 ft 14 kts 345°
2026-05-04 17:14 -33.94059 151.17653 27 ft 14 kts 347°
2026-05-04 17:15 -33.93957 151.17625 28 ft 15 kts 347°
2026-05-04 17:15 -33.93760 151.17574 28 ft 14 kts 349°
2026-05-04 17:16 -33.93581 151.17610 29 ft 13 kts 347°
2026-05-04 17:16 -33.93319 151.17575 29 ft 12 kts 348°
2026-05-04 17:17 -33.93235 151.17554 29 ft 12 kts 347°
2026-05-04 17:17 -33.93010 151.17615 29 ft 14 kts 98°
2026-05-04 17:18 -33.93038 151.17721 29 ft 12 kts 114°
2026-05-04 17:18 -33.93094 151.17813 29 ft 6 kts 191°
2026-05-04 17:19 -33.93141 151.17801 29 ft 0 kts 191°